Location: Zagreb
(45.8000°N, 16.0000°E)
Time: 07:19:40
(UTC+02:00)

ISS - Visible Passes

Search period start: 25 May 2024 00:00
Search period end: 04 June 2024 00:00
Orbit: 411 x 416 km, 51.6° (Epoch: 24 May)

Date Brightness Start Highest point End Pass type
(mag) Time Alt. Az. Time Alt. Az. Time Alt. Az.
25 May -2.5 22:29:53 10° W 22:32:49 28° SW 22:33:27 26° SSW visible
26 May -3.2 21:40:28 10° WNW 21:43:42 45° SW 21:46:03 16° SSE visible
27 May -1.3 22:29:30 10° WSW 22:30:48 12° SW 22:31:40 11° SSW visible
28 May -1.8 21:39:32 10° W 21:42:02 19° SW 21:44:31 10° S visible
